This demonstration page uses our WeatherBlox Daily Observations layout. Learn more.

Left ArrowRight Arrow

39.92423, -83.80882

Hourly Observations for June 7, 2021

Temp ( °F °C ) Dew Point ( °F °C ) Humidity (%) Winds ( mph kmh ) Pressure ( in mb ) Visibility ( mi km ) Precip ( " mm )
12:56 am 00:56 Clear 71 21.7 70 21.1 96 96 SSW 7 11 30.04 1017 10 16 N/A
1:56 am 01:56 Mostly Cloudy 70 21.1 70 21.1 100 100 SSW 5 7 30.04 1017 10 16 N/A
2:56 am 02:56 Mostly Cloudy 70 21.1 70 21.1 100 100 SSW 3 6 30.04 1017 10 16 N/A
3:56 am 03:56 Cloudy 69 20.6 69 20.6 100 100 SSE 3 6 30.03 1017 10 16 N/A
4:56 am 04:56 Cloudy 68 20 N/A N/A SSE 3 6 30.02 1017 10 16 N/A
5:56 am 05:56 Mostly Cloudy 66 19 N/A N/A SE 3 6 30.02 1017 10 16 N/A
6:56 am 06:56 Cloudy 68 20 N/A N/A ESE 5 7 30.02 1017 10 16 N/A
7:56 am 07:56 Cloudy with Light Rain 70 21 N/A N/A S 3 6 30.06 1018 10 16 0.00 0.00
8:56 am 08:56 Cloudy with Heavy Rain 70 21 N/A N/A SSW 5 7 30.09 1019 2 3 0.19 4.83
9:09 am 09:09 Cloudy with Rain 70 21 N/A N/A SSE 8 13 30.07 1018 3 5 0.08 2.03
9:56 am 09:56 Cloudy 70 21 N/A N/A SSE 7 11 30.08 1019 10 16 0.15 3.81
10:56 am 10:56 Mostly Cloudy 72 22.2 72 22.2 100 100 SSE 8 13 30.07 1018 10 16 N/A
11:09 am 11:09 Mostly Cloudy 72 22 72 22 100 100 SSE 6 9 30.05 1018 10 16 N/A
11:43 am 11:43 Cloudy 73 23 73 23 100 100 SSE 10 17 30.04 1017 10 16 N/A
11:56 am 11:56 Cloudy 75 23.9 75 23.9 100 100 S 8 13 30.06 1018 10 16 N/A
12:22 pm 12:22 Cloudy 75 24 75 24 100 100 SSE 10 17 30.04 1017 10 16 N/A
12:56 pm 12:56 Mostly Cloudy 78 25.6 76 24.4 93 93 S 8 13 30.05 1018 10 16 N/A
1:20 pm 13:20 Mostly Cloudy 79 26 73 23 84 84 SSW 12 19 30.01 1016 10 16 N/A
1:27 pm 13:27 Mostly Cloudy 79 26 73 23 84 84 SSW 12 19 30.01 1016 10 16 N/A
1:56 pm 13:56 Mostly Cloudy 81 27.2 72 22.2 74 74 SSW 10 17 30.03 1017 10 16 N/A
2:07 pm 14:07 Mostly Cloudy 81 27 72 22 74 74 SSW 7 11 30.00 1016 10 16 N/A
2:17 pm 14:17 Mostly Cloudy 81 27 72 22 74 74 SSW 12 19 30.00 1016 10 16 N/A
2:56 pm 14:56 Cloudy with Light Rain 79 26.1 71 21.7 77 77 SW 16 26 30.01 1016 10 16 0.00 0.00
3:56 pm 15:56 Partly Cloudy 79 26.1 72 22.2 79 79 WSW 14 22 30.01 1016 10 16 0.00 0.00
4:56 pm 16:56 Mostly Sunny 78 25.6 73 22.8 85 85 SSW 8 13 30.01 1016 10 16 0.00 0.00
5:56 pm 17:56 Mostly Cloudy 78 25.6 73 22.8 85 85 S 7 11 29.99 1016 10 16 N/A
6:21 pm 18:21 Mostly Cloudy 77 25 73 23 89 89 S 7 11 29.96 1015 10 16 N/A
6:56 pm 18:56 Mostly Sunny 77 25 74 23.3 90 90 S 8 13 29.99 1016 10 16 N/A
7:56 pm 19:56 Cloudy 76 24.4 73 22.8 91 91 SSW 5 7 30.00 1016 10 16 N/A
8:56 pm 20:56 Mostly Sunny 74 23.3 73 22.8 97 97 SSW 3 6 30.02 1017 10 16 N/A
9:56 pm 21:56 Clear 71 21.7 71 21.7 100 100 SE 3 6 30.03 1017 10 16 N/A
10:56 pm 22:56 Clear 72 22 N/A N/A S 7 11 30.05 1018 10 16 N/A
11:56 pm 23:56 Clear 72 22 N/A N/A S 5 7 30.06 1018 10 16 N/A

Powered by AerisWeather